Regional Weather Roundup
Issued by NWS Nashville, TN

Home | Current Version | Previous Version | Text Only | Print | Product List | Glossary On
Versions: 1 2 3 4 5 6 7 8 9 10 11 12 13 14 15 16 17 18 19 20 21 22 23 24 25 26 27 28 29 30 31 32 33 34 35 36 37 38 39 40 41 42 43 44 45 46 47 48 49 50
000
ASUS44 KOHX 190015
RWROHX
MIDDLE TENNESSEE HOURLY WEATHER ROUNDUP
NATIONAL WEATHER SERVICE NASHVILLE TN
700 PM CDT FRI APR 18 2014

NOTE: "FAIR" INDICATES FEW OR NO CLOUDS BELOW 12,000 FEET WITH
NO SIGNIFICANT WEATHER AND/OR OBSTRUCTIONS TO VISIBILITY.

* THESE REPORTS ARE NOT UNDER NWS QUALITY CONTROL AND MAY NOT
  REPORT WEATHER SUCH AS PRECIPITATION AND FOG.


TNZ005>011-023>034-057-059-062>066-078-080-190100
...NORTHERN MIDDLE TENNESSEE...

CITY           SKY/WX    TMP DP  RH WIND       PRES   REMARKS
BAXTER*          N/A     64  46  52 CALM        N/A
BRENTWOOD*       N/A     63  48  59 CALM        N/A
CASTALIAN SPRG   N/A     66  48  52 CALM        N/A
CLARKSVILLE    MOCLDY    69  45  41 CALM      30.17S
COLUMBIA       CLEAR     63  54  72 NE6       30.16F
CROSSVILLE     CLOUDY    60  39  45 VRB5      30.20S
GALLATIN         N/A     66  48  52 CALM      30.19S
DICKSON        CLOUDY    64  45  48 NE5       30.18S
FAIRFIELD GLAD   N/A     57  43  58 CALM        N/A
GLADEVILLE*      N/A     64  50  59 CALM        N/A
KINGSTON SPGS*   N/A     70  48  46 SE2         N/A
LAFAYETTE*       N/A     66  45  45 NE3         N/A
MONTEREY         N/A     61  46  59 CALM        N/A
MOUNT JULIET*    N/A     66  48  52 CALM        N/A
NASHVILLE      CLOUDY    66  46  48 NE3       30.18S
OLD HICKORY*     N/A     66  52  59 MISG        N/A
PEGRAM*          N/A    N/A N/A N/A CALM        N/A
PORTLAND       CLOUDY    64  46  52 E3        30.18S
SMYRNA         CLOUDY    64  47  54 CALM      30.18F
SPARTA         CLEAR     63  46  55 CALM      30.17S
SPRINGFIELD*     N/A     66  54  63 MISG        N/A
WHITE BLUFF*     N/A     66  43  42 CALM        N/A
$$
TNZ056-058-060-061-075>077-079-093>097-190100
...SOUTHERN MIDDLE TENNESSEE...

CITY           SKY/WX    TMP DP  RH WIND       PRES   REMARKS
BELLEVUE*        N/A     66  50  55 CALM        N/A
FAYETTEVILLE   CLOUDY    61  44  53 CALM      30.17F
HOHENWALD*       N/A     66  46  48 NE3         N/A
LEWISBURG      CLOUDY    62  48  60 N3        30.17F
MCMINNVILLE      N/A     62  49  62 CALM      30.18S
MURFREESBORO   CLOUDY    66  46  48 N5        30.17F
SHELBYVILLE    CLOUDY    63  48  59 N3        30.19S
SPRING HILL*     N/A     64  48  55 CALM        N/A
TULLAHOMA      CLEAR     63  43  48 NE3       30.18F
WINCHESTER     CLEAR     61  46  59 NE3       30.17F
$$


...KEY TO REMARKS...
VSB - VISIBILITY IN MILES
WCI - WIND CHILL INDEX
HX  - HEAT INDEX




USA.gov is the U.S. government's official web portal to all federal, state and local government web resources and services.